This is the latest recevied weather packets stored in our database for station/object ON7AMI-5. If no packets are shown the sender has not sent any weather packets the latest 1 day(s).
| Time | Temp. | Humidity | Pressure | Rain* | Wind** | Luminosity | Snow |
|---|---|---|---|---|---|---|---|
| 1778028034 | 9.44° C | 92% | 1010.5 hPa | 0 mm | 4.47 m/s, 23° | - | - |
| 1778027727 | 9.44° C | 92% | 1010.6 hPa | 0 mm | 3.13 m/s, 8° | - | - |
| 1778027433 | 9.44° C | 92% | 1010.6 hPa | 0 mm | 4.02 m/s, 17° | - | - |
| 1778027134 | 9.44° C | 92% | 1010.6 hPa | 0 mm | 3.58 m/s, 4° | - | - |
| 1778026827 | 9.44° C | 92% | 1010.7 hPa | 0 mm | 4.02 m/s, 24° | - | - |
| 1778026533 | 9.44° C | 92% | 1010.7 hPa | 0 mm | 3.13 m/s, 10° | - | - |
| 1778026232 | 10° C | 92% | 1010.7 hPa | 0 mm | 4.02 m/s, 12° | - | - |
| 1778025926 | 10° C | 92% | 1010.7 hPa | 0 mm | 3.58 m/s, 15° | - | - |
| 1778025632 | 10° C | 92% | 1010.7 hPa | 0 mm | 0 m/s | - | - |
| 1778025328 | 10° C | 92% | 1010.7 hPa | 0 mm | 4.02 m/s, 23° | - | - |
| 1778025031 | 10° C | 92% | 1010.7 hPa | 0 mm | 2.24 m/s, 22° | - | - |
| 1778024735 | 10° C | 92% | 1010.7 hPa | 0 mm | 3.13 m/s, 37° | - | - |
| 1778024430 | 10° C | 92% | 1010.7 hPa | 0 mm | 5.81 m/s, 29° | - | - |
| 1778024129 | 10° C | 92% | 1010.7 hPa | 0 mm | 3.13 m/s, 23° | - | - |
| 1778023835 | 10.56° C | 92% | 1010.7 hPa | 0 mm | 3.13 m/s, 35° | - | - |
| 1778023535 | 10.56° C | 92% | 1010.7 hPa | 0 mm | 4.02 m/s, 37° | - | - |
| 1778023229 | 10.56° C | 92% | 1010.7 hPa | 0 mm | 4.02 m/s, 38° | - | - |
| 1778022935 | 10.56° C | 92% | 1010.7 hPa | 0 mm | 3.58 m/s, 24° | - | - |
| 1778022628 | 10.56° C | 92% | 1010.7 hPa | 0 mm | 3.13 m/s, 14° | - | - |
| 1778022335 | 10.56° C | 92% | 1010.8 hPa | 0 mm | 2.24 m/s, 39° | - | - |
| 1778022035 | 10.56° C | 92% | 1010.8 hPa | 0 mm | 3.13 m/s, 33° | - | - |
| 1778021731 | 10.56° C | 92% | 1010.8 hPa | 0 mm | 4.92 m/s, 38° | - | - |
| 1778021435 | 10.56° C | 92% | 1010.8 hPa | 0 mm | 0.89 m/s, 16° | - | - |
| 1778021135 | 10.56° C | 92% | 1010.8 hPa | 0 mm | 2.24 m/s, 40° | - | - |
| 1778020839 | 10.56° C | 92% | 1010.8 hPa | 0 mm | 1.79 m/s, 21° | - | - |
* Rain latest hour (hover to see other rain measurements)
** Current wind speed in m/s (hover to see current wind gust speed)